Wind_Speed
3 3 3 3 3 3 4 4 4 4 4 5 4 4 3 3 3 3 3 3 4 5 5 5 5 6 6 7 7 6 6 6 5 5 5 6 6 6 6 6 6 6 7 7 7 7 7 7 8
3 3 3 3 3 4 4 4 4 4 4 5 5 5 4 4 4 4 4 4 5 5 6 6 6 6 6 6 6 6 6 6 6 6 6 7 7 7 7 7 7 7 7 7 7 8 8 8 8
3 3 4 4 4 4 4 4 4 5 5 5 5 5 5 5 5 5 5 5 5 6 6 6 6 6 6 6 6 5 6 6 7 7 7 7 8 8 8 9 8 8 8 8 8 8 9 9 9
3 4 4 3 4 4 5 5 4 5 5 6 6 6 6 5 6 6 6 6 6 6 7 7 7 7 7 6 6 6 6 7 7 8 8 8 8 8 9 9 9 9 9 8 8 8 9 9 10
4 4 4 4 4 4 5 5 5 5 6 6 6 6 6 6 6 7 7 7 6 7 7 7 7 7 7 7 7 7 7 7 8 8 8 8 8 9 9 9 9 10 10 9 9 9 9 10 10
4 4 4 4 4 5 5 5 5 6 6 6 6 7 7 7 8 8 7 7 7 7 7 7 7 7 7 7 7 8 8 8 8 9 9 9 9 9 10 10 10 10 11 10 11 11 10 10 10
5 4 4 4 5 5 5 5 6 7 7 7 7 7 7 8 8 9 9 8 8 8 8 7 7 7 7 7 7 8 8 8 9 9 9 9 9 9 9 10 10 10 10 11 11 10 10 10 10
5 5 5 5 6 5 5 6 7 7 7 7 7 7 8 8 9 9 9 9 8 8 7 7 7 7 7 7 8 8 8 9 9 9 9 9 9 9 9 9 9 9 10 10 10 9 9 9 10
5 5 5 6 6 6 6 7 7 7 7 7 8 8 8 8 9 10 10 9 9 8 7 7 7 6 7 8 8 8 8 9 9 9 10 10 10 10 9 9 9 9 9 9 10 10 10 10 9
6 6 6 7 7 7 7 8 7 7 7 8 9 9 9 9 10 10 10 10 9 9 8 7 7 6 7 7 8 8 9 9 9 10 10 10 10 10 10 10 10 9 9 9 10 11 11 11 10
7 7 8 8 8 8 8 8 8 8 8 9 9 10 9 9 10 10 10 10 10 9 8 7 7 6 6 7 8 9 9 9 9 9 9 10 10 10 10 10 10 10 9 9 9 9 10 10 9
8 8 8 9 9 9 9 9 8 8 9 9 9 10 10 10 10 10 10 10 9 8 8 8 8 8 8 8 9 9 9 9 9 9 9 9 9 9 9 9 10 10 9 9 9 9 9 9 9
9 9 9 9 9 10 10 9 9 9 9 9 9 10 10 10 10 10 9 9 9 8 8 8 9 9 9 9 9 9 9 9 9 8 9 9 9 8 8 8 8 9 9 9 9 9 9 9 10
9 10 10 10 10 10 10 10 10 10 10 10 10 9 9 9 9 9 9 9 9 8 8 8 9 9 9 9 9 9 9 8 8 8 8 8 8 8 7 7 8 8 8 7 8 9 9 9 9
10 10 10 10 11 11 11 10 11 10 11 11 10 8 8 9 9 9 9 9 9 8 8 8 8 8 8 9 9 9 8 8 8 8 8 8 8 8 7 6 6 7 7 7 8 8 8 8 8
12 11 11 11 11 12 11 11 11 11 11 11 9 8 8 8 9 9 9 9 9 9 9 8 8 8 9 9 9 8 8 8 7 7 8 7 7 7 7 7 6 7 7 7 7 7 7 7 7
12 12 11 11 12 12 12 11 11 11 11 11 10 9 8 9 9 9 9 9 8 9 9 9 9 8 9 9 8 8 8 8 7 7 7 6 6 6 6 6 7 7 7 7 7 6 6 6 6
13 12 12 12 12 12 12 12 11 11 11 11 10 10 10 10 9 9 9 9 9 9 9 9 8 8 8 9 9 8 8 7 6 6 6 6 6 6 6 6 6 6 7 7 6 6 6 6 6
14 13 13 13 13 13 12 12 11 11 11 11 11 11 11 10 10 10 9 9 10 9 9 9 9 9 8 8 8 7 6 6 6 5 6 6 5 5 6 6 6 6 5 5 5 5 6 6 6
14 14 14 14 14 14 13 12 12 12 11 11 11 11 11 10 10 10 9 9 10 9 9 9 9 9 8 7 7 7 6 5 5 5 5 6 5 5 6 6 6 5 5 4 4 5 5 5 5
14 15 15 15 14 14 15 14 13 13 13 12 12 12 11 11 10 10 10 9 9 9 9 9 9 9 8 7 7 7 6 6 5 5 5 5 6 6 7 6 6 6 5 5 5 5 5 5 5
15 15 16 15 15 16 16 15 13 13 13 13 12 12 12 12 11 10 10 9 9 9 10 10 9 9 8 7 7 7 6 6 6 6 6 6 6 6 7 7 7 7 6 6 6 5 5 5 5
16 16 17 17 17 17 17 17 14 14 14 14 13 13 13 13 12 11 10 10 9 9 10 10 9 9 8 7 7 7 7 6 6 7 6 6 7 7 8 8 8 8 7 7 6 6 6 6 5
16 17 18 18 18 18 17 17 15 15 15 15 14 14 13 13 13 12 11 11 10 10 10 10 10 9 8 8 7 7 7 6 6 7 7 7 7 8 8 8 7 8 7 7 7 7 6 6 6
17 18 19 19 19 18 17 17 16 16 15 15 15 14 14 13 13 13 12 12 11 11 10 10 10 9 9 8 8 8 7 7 7 7 7 7 7 7 8 8 8 8 7 7 7 7 7 6 6
18 19 19 19 19 18 17 16 15 16 16 16 16 15 15 14 14 14 13 12 12 12 11 10 11 10 9 9 9 8 8 8 7 7 8 8 8 8 8 8 8 8 8 7 7 7 6 6 6
18 18 19 19 19 18 17 16 15 15 16 16 16 16 15 15 14 14 13 13 13 12 11 10 10 10 10 9 9 9 9 8 8 8 8 8 8 8 8 8 8 8 8 8 7 7 7 7 7
19 18 18 19 19 19 17 16 15 16 17 17 17 17 16 15 15 14 14 14 13 13 12 11 10 10 10 10 9 10 9 9 8 8 8 8 7 8 7 7 7 8 7 8 7 7 7 7 6
19 19 19 20 20 20 19 17 16 17 17 18 18 17 17 16 15 16 15 15 14 14 13 12 11 11 10 10 10 9 9 10 9 9 8 8 8 8 7 8 8 8 8 8 8 8 7 7 7
20 20 20 21 21 21 21 18 18 18 18 19 19 19 18 17 16 16 16 16 15 15 14 13 12 12 11 10 10 10 10 10 10 9 9 9 9 8 8 8 8 9 8 8 8 8 8 8 7
Wind_Direction
27 20 24 23 16 18 15 4 1 357 357 357 355 353 345 333 320 307 303 299 297 295 289 289 295 299 298 297 290 285 280 279 285 287 289 290 285 284 286 286 288 289 283 280 273 276 273 269 267
4 3 8 9 4 357 356 354 348 342 344 341 340 339 334 331 316 304 297 289 290 290 286 285 288 296 298 294 291 290 282 280 283 286 288 284 280 282 281 281 281 283 282 283 284 278 271 268 268
343 342 351 356 354 346 342 339 331 331 336 332 331 330 328 326 315 303 294 288 288 286 283 286 287 294 296 292 288 289 286 283 284 284 289 284 280 280 276 277 276 278 279 280 282 283 277 270 268
328 334 339 344 344 339 333 328 327 331 331 329 331 328 322 320 318 309 302 295 288 286 283 284 287 291 291 290 287 283 281 282 281 283 287 285 280 279 275 272 273 274 274 276 277 278 279 275 273
318 327 335 336 333 329 327 326 331 337 336 334 331 327 322 319 317 313 303 295 292 288 287 285 285 285 285 285 286 286 280 279 278 280 281 282 281 278 274 270 269 269 270 271 271 272 273 272 272
314 322 325 325 323 327 325 328 336 338 336 338 336 332 326 321 315 314 306 296 291 289 286 281 283 281 279 279 283 285 283 276 275 277 277 279 279 278 274 270 269 268 268 270 269 268 266 267 271
311 317 324 328 327 322 319 325 334 337 336 333 330 328 328 325 321 316 314 305 299 294 288 285 283 279 280 280 282 282 284 282 278 278 277 278 278 276 273 270 268 267 267 269 270 265 263 264 269
308 314 323 321 318 318 322 325 327 329 329 329 327 324 324 325 325 321 316 314 307 299 292 287 287 282 282 283 284 283 283 283 284 284 279 279 276 273 272 270 268 265 267 268 267 263 260 265 269
302 308 315 313 313 314 322 323 324 322 324 326 325 322 318 319 321 321 318 316 313 306 298 293 289 284 282 280 283 282 283 284 284 282 279 277 276 273 269 268 266 265 266 266 263 260 259 262 265
295 302 307 306 308 309 315 317 320 323 323 323 323 321 317 317 318 320 319 316 312 309 303 296 294 286 284 283 285 285 284 286 284 280 277 275 274 272 269 267 266 265 264 265 261 259 258 259 262
290 296 300 302 303 307 309 311 316 321 318 319 321 320 318 318 318 318 316 315 311 308 305 299 297 295 291 288 288 287 286 286 285 279 277 276 273 272 271 267 267 264 262 262 259 257 259 259 258
284 291 293 295 298 303 307 309 312 316 316 318 320 320 317 319 318 317 314 311 309 306 304 305 304 300 299 292 288 288 288 287 283 280 279 276 272 272 272 270 267 263 258 258 255 254 256 259 259
280 289 291 293 296 301 304 304 306 311 312 313 314 316 315 319 319 316 313 309 307 304 304 307 307 303 304 299 292 289 288 284 282 279 279 275 271 269 268 268 266 263 260 255 252 251 251 255 259
278 286 290 292 295 299 301 301 301 306 308 309 310 311 313 319 322 319 313 312 308 307 308 306 305 303 306 304 299 294 291 286 283 278 277 271 267 265 266 267 265 266 260 256 256 254 250 254 256
273 279 286 291 293 295 298 298 299 302 304 305 306 308 311 316 320 321 316 314 312 311 310 309 305 304 304 303 299 297 294 288 283 279 273 266 263 262 257 260 263 263 258 254 258 258 257 255 254
272 275 280 287 290 291 294 297 297 299 302 303 302 306 308 311 315 318 317 313 310 308 308 306 303 304 304 302 300 298 294 287 282 280 276 266 262 261 255 258 263 263 261 260 260 259 259 257 255
270 273 277 282 287 289 291 293 295 297 300 301 302 305 307 308 312 317 319 316 310 308 306 306 304 303 302 299 298 296 291 286 281 278 277 266 259 259 256 261 262 262 263 264 262 266 260 258 254
271 273 276 279 280 284 289 291 291 291 293 295 297 300 302 306 309 312 315 313 308 305 305 307 311 311 307 306 301 296 293 290 286 279 272 264 259 257 257 259 260 257 260 265 264 262 257 253 251
272 273 275 276 277 281 285 287 285 285 287 291 295 298 301 304 306 307 310 309 308 304 301 302 307 311 310 309 306 300 293 292 286 277 273 266 264 261 258 257 258 256 261 266 266 262 251 250 249
271 272 273 275 278 280 282 282 280 281 283 287 291 294 296 300 302 303 305 306 307 306 302 299 302 304 304 302 299 292 286 286 280 272 269 264 259 259 256 252 249 250 258 264 264 258 251 247 247
270 273 274 276 278 280 285 283 279 277 279 283 285 288 292 296 301 303 303 303 303 304 303 301 302 300 297 294 293 289 285 283 282 275 264 260 257 254 252 252 258 256 252 256 262 253 250 246 248
269 271 274 276 279 282 284 282 277 276 277 279 282 284 287 290 293 296 298 300 300 299 300 300 299 295 295 293 290 284 283 280 276 273 266 261 259 255 258 258 261 260 255 254 257 253 252 251 252
268 270 273 277 280 280 279 278 277 276 276 277 279 281 283 285 287 288 290 295 296 296 296 297 297 295 295 295 286 276 275 275 270 266 268 266 264 262 259 259 260 259 255 255 258 253 253 253 257
268 269 272 275 276 278 277 277 277 277 275 276 278 279 280 280 282 283 284 288 290 291 290 290 291 291 288 288 287 279 276 275 272 270 270 267 266 264 259 258 259 257 255 255 252 248 252 253 258
268 270 274 274 275 278 279 278 278 278 276 276 276 276 278 279 280 281 280 282 284 285 284 284 286 286 284 282 282 277 273 275 274 270 271 267 266 263 257 252 252 255 256 255 251 249 250 251 255
268 270 274 277 278 279 279 280 279 277 277 276 276 275 275 277 278 279 280 279 280 280 280 282 285 285 281 278 279 276 275 273 271 271 269 268 266 261 254 251 250 252 250 250 247 243 249 247 245
269 271 272 276 277 277 277 277 277 277 277 277 276 274 274 274 276 275 277 277 275 275 276 279 282 282 280 279 275 273 273 268 267 270 270 268 264 258 254 254 252 251 247 246 247 242 245 244 243
270 272 273 274 278 279 278 277 275 275 278 277 276 274 272 272 272 272 273 274 272 271 271 275 277 275 273 272 271 269 265 265 268 268 266 264 257 254 253 250 248 244 242 240 242 240 237 240 242
268 269 270 273 276 279 280 277 275 276 278 278 275 275 273 272 268 268 270 271 270 269 268 269 273 273 271 268 266 265 260 261 264 265 263 260 257 255 250 247 246 244 241 239 240 239 236 238 244
268 270 272 273 276 277 278 278 279 277 277 276 274 273 273 272 268 267 267 268 267 266 266 266 268 268 267 266 265 264 258 259 262 263 259 257 255 255 252 248 248 247 241 239 242 242 240 244 247
Height
5880 5880 5880 5881 5881 5880 5880 5880 5879 5878 5878 5878 5877 5876 5876 5877 5877 5879 5877 5875 5875 5875 5875 5874 5874 5874 5873 5873 5873 5872 5873 5873 5873 5873 5873 5873 5873 5874 5874 5874 5874 5875 5875 5875 5875 5876 5876 5876 5876
5880 5881 5882 5881 5881 5880 5880 5880 5879 5878 5878 5877 5877 5876 5876 5875 5875 5875 5874 5874 5874 5874 5874 5873 5873 5873 5872 5872 5872 5871 5871 5871 5872 5872 5872 5872 5872 5872 5873 5873 5873 5873 5873 5874 5874 5874 5874 5874 5875
5881 5881 5882 5881 5880 5880 5880 5880 5879 5878 5878 5877 5877 5876 5875 5875 5874 5874 5874 5873 5873 5873 5873 5872 5872 5871 5871 5871 5870 5870 5870 5870 5870 5870 5870 5870 5870 5870 5871 5871 5871 5872 5872 5872 5872 5872 5872 5873 5873
5881 5882 5882 5881 5880 5880 5880 5879 5879 5878 5878 5877 5876 5875 5875 5874 5874 5873 5873 5872 5872 5872 5871 5871 5870 5870 5870 5869 5869 5868 5868 5869 5868 5868 5869 5869 5869 5869 5869 5869 5869 5870 5870 5870 5870 5870 5870 5871 5871
5881 5881 5881 5880 5880 5880 5879 5879 5879 5878 5877 5876 5876 5875 5874 5873 5873 5872 5871 5871 5870 5870 5870 5869 5869 5868 5868 5868 5867 5867 5867 5867 5867 5867 5867 5867 5867 5867 5867 5867 5867 5868 5868 5868 5868 5869 5869 5869 5869
5881 5881 5881 5880 5880 5880 5879 5879 5878 5877 5876 5876 5875 5874 5873 5872 5872 5871 5870 5870 5869 5868 5868 5867 5867 5867 5866 5866 5866 5865 5865 5865 5865 5865 5865 5865 5865 5865 5865 5865 5865 5866 5866 5866 5866 5866 5866 5866 5867
5881 5881 5880 5880 5879 5879 5879 5878 5878 5877 5876 5875 5874 5873 5872 5872 5871 5870 5869 5868 5867 5867 5866 5865 5865 5865 5865 5864 5864 5864 5863 5863 5863 5863 5863 5863 5863 5863 5863 5863 5863 5863 5864 5864 5864 5864 5864 5864 5865
5880 5881 5880 5879 5879 5879 5878 5877 5877 5876 5875 5875 5874 5872 5871 5871 5869 5868 5867 5867 5866 5865 5864 5864 5863 5863 5863 5863 5862 5862 5861 5861 5861 5860 5860 5860 5860 5861 5861 5861 5861 5861 5861 5861 5861 5862 5862 5862 5862
5879 5881 5879 5879 5878 5878 5877 5877 5876 5875 5874 5873 5872 5871 5871 5869 5868 5867 5866 5865 5865 5864 5863 5862 5862 5861 5861 5861 5861 5860 5859 5859 5859 5859 5858 5858 5858 5858 5859 5859 5859 5859 5859 5859 5859 5860 5860 5860 5861
5879 5879 5879 5878 5878 5877 5876 5876 5875 5874 5873 5872 5871 5870 5869 5868 5867 5866 5865 5864 5863 5862 5861 5861 5860 5860 5859 5859 5859 5858 5857 5857 5857 5857 5856 5856 5856 5856 5856 5857 5857 5857 5857 5857 5857 5857 5858 5858 5859
5877 5877 5877 5877 5876 5876 5875 5875 5874 5873 5872 5871 5870 5869 5868 5867 5866 5865 5863 5862 5861 5861 5860 5859 5859 5858 5858 5857 5857 5856 5855 5855 5855 5854 5854 5854 5854 5854 5854 5854 5855 5855 5855 5855 5855 5856 5856 5856 5857
5876 5876 5876 5875 5875 5875 5874 5873 5873 5872 5871 5870 5869 5868 5866 5865 5864 5863 5862 5860 5860 5859 5858 5858 5857 5856 5856 5855 5855 5854 5854 5853 5853 5853 5852 5852 5852 5852 5852 5852 5853 5853 5853 5853 5853 5854 5854 5854 5855
5874 5874 5874 5874 5873 5873 5873 5872 5871 5871 5870 5869 5867 5866 5865 5864 5862 5861 5860 5859 5858 5857 5857 5856 5855 5854 5854 5853 5853 5852 5852 5851 5851 5851 5850 5850 5850 5850 5850 5850 5851 5851 5851 5851 5852 5852 5852 5852 5853
5872 5872 5872 5872 5872 5871 5871 5871 5870 5869 5868 5867 5866 5865 5864 5862 5861 5860 5859 5857 5856 5856 5855 5854 5853 5853 5852 5851 5851 5850 5850 5849 5849 5848 5848 5848 5848 5848 5848 5848 5849 5849 5849 5850 5850 5850 5850 5851 5851
5870 5871 5871 5870 5870 5870 5870 5869 5868 5867 5866 5865 5865 5863 5862 5861 5860 5859 5857 5856 5855 5854 5853 5852 5852 5851 5850 5850 5849 5848 5848 5847 5847 5846 5846 5846 5846 5846 5846 5847 5847 5847 5848 5848 5848 5848 5848 5849 5849
5868 5869 5869 5869 5868 5867 5869 5868 5866 5865 5864 5864 5863 5862 5861 5860 5859 5857 5856 5855 5853 5853 5852 5851 5850 5850 5849 5848 5847 5847 5846 5845 5845 5844 5844 5844 5844 5844 5845 5845 5846 5846 5846 5846 5846 5846 5847 5847 5847
5866 5867 5867 5867 5866 5865 5866 5865 5865 5863 5862 5862 5861 5860 5859 5858 5857 5856 5854 5853 5852 5851 5850 5849 5848 5848 5847 5846 5846 5845 5844 5844 5843 5843 5843 5843 5843 5843 5843 5843 5844 5844 5845 5845 5845 5845 5845 5845 5846
5864 5864 5864 5864 5864 5863 5863 5863 5862 5861 5860 5860 5859 5858 5858 5857 5855 5854 5853 5851 5850 5850 5849 5848 5847 5846 5845 5844 5844 5843 5842 5842 5842 5841 5841 5841 5842 5842 5842 5842 5842 5842 5843 5843 5843 5843 5843 5844 5844
5861 5861 5861 5861 5861 5861 5860 5860 5860 5859 5858 5857 5857 5856 5855 5855 5853 5852 5851 5850 5849 5848 5847 5846 5845 5844 5843 5843 5842 5841 5841 5840 5840 5840 5840 5840 5840 5841 5841 5841 5841 5841 5841 5842 5842 5842 5842 5842 5843
5857 5858 5858 5858 5858 5858 5857 5857 5857 5857 5856 5855 5854 5853 5853 5852 5851 5850 5849 5848 5847 5846 5845 5844 5843 5842 5842 5841 5840 5840 5839 5839 5839 5839 5839 5839 5839 5839 5840 5840 5840 5840 5840 5840 5841 5841 5841 5841 5842
5854 5854 5854 5855 5854 5854 5854 5855 5854 5854 5853 5853 5852 5851 5850 5849 5849 5848 5847 5846 5845 5844 5843 5842 5842 5841 5840 5839 5839 5838 5838 5838 5838 5838 5838 5838 5838 5838 5838 5838 5839 5839 5839 5839 5839 5840 5840 5840 5841
5851 5851 5851 5850 5851 5850 5851 5851 5851 5850 5850 5850 5849 5848 5848 5847 5846 5845 5845 5844 5843 5842 5841 5840 5839 5839 5838 5837 5837 5837 5837 5836 5836 5836 5836 5836 5836 5836 5837 5837 5837 5837 5837 5838 5838 5838 5839 5839 5840
5847 5847 5847 5846 5846 5847 5847 5847 5848 5847 5847 5847 5846 5845 5845 5844 5843 5843 5842 5842 5841 5840 5839 5838 5837 5837 5836 5835 5835 5835 5835 5835 5835 5835 5834 5835 5835 5835 5835 5835 5835 5835 5836 5836 5837 5837 5838 5838 5839
5843 5843 5843 5842 5842 5843 5843 5843 5844 5843 5843 5843 5843 5842 5841 5841 5840 5840 5840 5839 5838 5838 5837 5836 5835 5835 5834 5834 5833 5833 5833 5833 5833 5833 5833 5833 5833 5833 5833 5833 5833 5834 5834 5835 5835 5836 5836 5837 5837
5839 5839 5839 5838 5838 5839 5839 5838 5840 5839 5839 5838 5838 5838 5838 5837 5837 5837 5836 5836 5835 5835 5834 5833 5833 5832 5832 5832 5831 5831 5831 5831 5831 5831 5831 5831 5831 5831 5831 5831 5832 5832 5832 5833 5833 5834 5835 5835 5836
5834 5834 5835 5834 5834 5834 5834 5834 5836 5835 5834 5834 5834 5834 5834 5834 5833 5833 5833 5833 5832 5831 5831 5830 5830 5830 5829 5829 5829 5829 5829 5829 5829 5829 5829 5829 5829 5829 5830 5830 5830 5831 5831 5831 5832 5833 5833 5834 5834
5829 5829 5829 5829 5828 5829 5829 5830 5831 5830 5829 5829 5829 5829 5830 5830 5829 5829 5829 5829 5829 5828 5827 5827 5827 5826 5827 5827 5827 5827 5827 5827 5827 5827 5827 5827 5827 5827 5827 5828 5828 5829 5829 5830 5830 5831 5831 5832 5833
5825 5825 5825 5824 5824 5824 5825 5826 5826 5826 5825 5825 5825 5825 5825 5825 5825 5825 5825 5825 5825 5824 5824 5824 5824 5823 5824 5824 5824 5824 5824 5825 5825 5825 5825 5825 5825 5825 5825 5826 5826 5827 5827 5828 5829 5829 5830 5831 5831
5820 5820 5819 5819 5819 5819 5819 5823 5822 5821 5820 5820 5820 5820 5820 5820 5821 5821 5821 5821 5821 5821 5820 5820 5820 5820 5820 5821 5821 5821 5821 5822 5822 5822 5822 5823 5823 5823 5824 5824 5824 5825 5826 5826 5827 5828 5828 5829 5829
5815 5815 5815 5815 5815 5814 5814 5819 5816 5816 5815 5815 5815 5815 5815 5815 5816 5816 5816 5816 5816 5817 5817 5816 5817 5817 5817 5818 5818 5818 5818 5819 5819 5820 5820 5820 5821 5821 5822 5822 5822 5823 5823 5824 5825 5826 5826 5827 5828